TimeEDT,TemperatureF,Dew PointF,Humidity,Sea Level PressureIn,VisibilityMPH,Wind Direction,Wind SpeedMPH,Gust SpeedMPH,PrecipitationIn,Events,Conditions,WindDirDegrees,DateUTC
12:53 AM,64.0,54.0,70,29.78,10.0,Variable,5.8,-,N/A,,Clear,0,2012-10-28 04:53:00
1:53 AM,62.1,53.1,72,29.78,10.0,Variable,6.9,-,N/A,,Clear,0,2012-10-28 05:53:00
2:53 AM,60.1,52.0,75,29.78,10.0,Variable,5.8,-,N/A,,Clear,0,2012-10-28 06:53:00
3:53 AM,57.9,50.0,75,29.78,10.0,Variable,3.5,-,N/A,,Clear,0,2012-10-28 07:53:00
4:53 AM,57.0,50.0,77,29.77,10.0,NW,4.6,-,N/A,,Clear,320,2012-10-28 08:53:00
5:53 AM,55.9,48.9,77,29.77,10.0,Variable,3.5,-,N/A,,Clear,0,2012-10-28 09:53:00
6:53 AM,54.0,48.9,83,29.77,10.0,Variable,5.8,-,N/A,,Clear,0,2012-10-28 10:53:00
7:53 AM,54.0,48.0,80,29.79,10.0,NW,5.8,-,N/A,,Clear,320,2012-10-28 11:53:00
8:53 AM,57.0,48.9,74,29.82,10.0,NW,5.8,-,N/A,,Clear,310,2012-10-28 12:53:00
9:53 AM,60.1,48.9,67,29.83,10.0,NW,11.5,17.3,N/A,,Partly Cloudy,320,2012-10-28 13:53:00
10:53 AM,63.0,50.0,63,29.83,10.0,NW,8.1,16.1,N/A,,Partly Cloudy,320,2012-10-28 14:53:00
11:12 AM,62.6,50.0,63,29.81,10.0,Variable,6.9,17.3,N/A,,Mostly Cloudy,0,2012-10-28 15:12:00
11:53 AM,64.0,50.0,60,29.81,10.0,NW,9.2,-,N/A,,Overcast,320,2012-10-28 15:53:00
12:19 PM,66.2,51.8,60,29.78,10.0,Variable,5.8,-,N/A,,Scattered Clouds,0,2012-10-28 16:19:00
12:53 PM,66.0,51.1,59,29.79,10.0,Variable,4.6,-,N/A,,Scattered Clouds,0,2012-10-28 16:53:00
1:12 PM,66.2,51.8,60,29.76,10.0,Variable,6.9,-,N/A,,Mostly Cloudy,0,2012-10-28 17:12:00
1:51 PM,66.2,51.8,60,29.75,10.0,NW,8.1,-,N/A,,Scattered Clouds,310,2012-10-28 17:51:00
1:53 PM,66.9,51.1,57,29.77,10.0,Variable,3.5,-,N/A,,Scattered Clouds,0,2012-10-28 17:53:00
2:53 PM,69.1,51.1,53,29.75,10.0,NW,8.1,-,N/A,,Scattered Clouds,320,2012-10-28 18:53:00
3:46 PM,66.2,50.0,56,29.74,10.0,NW,8.1,-,N/A,,Mostly Cloudy,310,2012-10-28 19:46:00
3:53 PM,64.9,50.0,58,29.76,10.0,WNW,8.1,-,N/A,,Mostly Cloudy,300,2012-10-28 19:53:00
4:53 PM,63.0,50.0,63,29.77,10.0,Variable,5.8,-,N/A,,Mostly Cloudy,0,2012-10-28 20:53:00
5:48 PM,60.8,48.2,63,29.76,10.0,WNW,8.1,18.4,N/A,,Overcast,300,2012-10-28 21:48:00
5:53 PM,61.0,48.0,62,29.78,10.0,WNW,6.9,16.1,N/A,,Overcast,300,2012-10-28 21:53:00
6:53 PM,60.1,48.0,64,29.80,10.0,Variable,6.9,-,N/A,,Overcast,0,2012-10-28 22:53:00
7:53 PM,60.1,46.9,62,29.82,10.0,NW,9.2,17.3,N/A,,Overcast,310,2012-10-28 23:53:00
8:24 PM,60.8,44.6,55,29.80,10.0,Variable,4.6,-,N/A,,Overcast,0,2012-10-29 00:24:00
8:53 PM,60.1,44.1,55,29.84,10.0,Variable,3.5,17.3,N/A,,Overcast,0,2012-10-29 00:53:00
9:53 PM,60.1,44.1,55,29.85,10.0,Variable,4.6,-,N/A,,Overcast,0,2012-10-29 01:53:00
10:53 PM,57.0,41.0,55,29.86,10.0,Variable,5.8,-,N/A,,Scattered Clouds,0,2012-10-29 02:53:00
11:53 PM,55.0,41.0,59,29.86,10.0,Variable,5.8,-,N/A,,Clear,0,2012-10-29 03:53:00